Hourly Data Report for May 13, 2020

KUGAARUK CLIMATE
NUNAVUT
Current Station Operator: ECCC - MSC

68°32'15.060" N
89°47'47.020" W
15.80 m
2303094
71407
NBB

Download Data

Hourly Data (May 2020)
Hourly Data Report for May 13, 2020
TIME
LST
Temp Definition
°C
Dew Point Definition
°C
Rel Hum Definition
%
Precip. Amount Definition
mm

Wind Dir Definition
10's deg

Wind Spd Definition
km/h
Visibility Definition
km
Stn Press Definition
kPa
Hmdx Definition


Wind Chill Definition


Weather Definition


00:00 -4.0 -5.0 93 0.0 3 19   100.03   -10 LegendNANA
01:00 -3.0 -4.2 92 0.2 5 25   99.97   -10 LegendNANA
02:00 -3.0 -3.9 94 0.0 6 21   99.96   -9 LegendNANA
03:00 -3.0 -3.7 94 0.5 8 22   99.94   -9 LegendNANA
04:00 -3.2 -4.4 92 0.2 8 24   99.93   -10 LegendNANA
05:00 -3.2 -4.6 90 0.0 7 26   99.92   -10 LegendNANA
06:00 -3.3 -5.3 86 0.0 7 22   99.93   -10 LegendNANA
07:00 -2.9 -4.9 86 0.0 8 22   99.95   -9 LegendNANA
08:00 -2.2 -4.8 82 0.0 9 22   99.95   -8 LegendNANA
09:00 -1.6 -4.0 84 0.0 9 27   99.94   -8 LegendNANA
10:00 -1.6 -5.5 75 0.0 11 32   99.99   -9 LegendNANA
11:00 -1.9 -5.3 78 0.0 10 27   100.01   -9 LegendNANA
12:00 -2.1 -6.4 72 0.0 11 23   100.07   -8 LegendNANA
13:00 -1.7 -5.9 73 0.0 11 21   100.10   -8 LegendNANA
14:00 -2.0 -4.8 81 0.0 9 20   100.13   -8 LegendNANA
15:00 -2.0 -4.7 81 0.0 9 19   100.17   -8 LegendNANA
16:00 -2.2 -4.5 85 0.0 10 17   100.21   -8 LegendNANA
17:00 -2.4 -4.5 86 0.0 9 19   100.22   -8 LegendNANA
18:00 -2.7 -4.4 88 0.0 10 14   100.24   -8 LegendNANA
19:00 -2.9 -4.3 90 0.0 12 12   100.27   -7 LegendNANA
20:00 -3.2 -4.5 91 0.0 14 9   100.29   -7 LegendNANA
21:00 -2.8 -5.4 83 0.0 15 11   100.34   -7 LegendNANA
22:00 -3.6 -5.7 85 0.0 13 13   100.38   -8 LegendNANA
23:00 -4.1 -6.3 84 0.0 14 13   100.44   -9 LegendNANA

Notes on Data Quality.

Legend

  • E = Estimated
  • M = Missing
  • NA = Not Available*
  • [empty] = Indicates an unobserved value
Date modified: